Time,TemperatureF,DewpointF,PressureIn,WindDirection,WindDirectionDegrees,WindSpeedMPH,WindSpeedGustMPH,Humidity,HourlyPrecipIn,Conditions,Clouds,dailyrainin,SolarRadiationWatts/m^2,SoftwareType,DateUTC
2013-01-01 00:01:00,41.5,24.2,29.16,N/A,-32768,0.0,0.0,50,0.00,,,0.00,0,Wunderground v.1.15,2013-01-01 05:01:00,
2013-01-01 00:04:00,41.7,24.4,29.16,N/A,-32768,0.0,0.0,50,0.00,,,0.00,0,Wunderground v.1.15,2013-01-01 05:04:00,
2013-01-01 00:09:00,41.8,24.5,29.15,N/A,-32768,0.0,0.0,50,0.00,,,0.00,0,Wunderground v.1.15,2013-01-01 05:09:00,
2013-01-01 00:10:00,41.7,24.4,29.15,N/A,-32768,0.0,0.0,50,0.00,,,0.00,0,Wunderground v.1.15,2013-01-01 05:10:00,
2013-01-01 00:11:00,41.9,24.6,29.15,N/A,-32768,0.0,0.0,50,0.00,,,0.00,0,Wunderground v.1.15,2013-01-01 05:11:00,
2013-01-01 00:16:00,41.9,24.6,29.15,N/A,-32768,0.0,0.0,50,0.00,,,0.00,0,Wunderground v.1.15,2013-01-01 05:16:00,
2013-01-01 00:22:00,42.0,24.7,29.15,N/A,-32768,0.0,0.0,50,0.00,,,0.00,0,Wunderground v.1.15,2013-01-01 05:22:00,
2013-01-01 00:28:00,42.1,24.8,29.15,N/A,-32768,0.0,0.0,50,0.00,,,0.00,0,Wunderground v.1.15,2013-01-01 05:28:00,
2013-01-01 00:33:00,42.2,24.9,29.15,N/A,-32768,0.0,0.0,50,0.00,,,0.00,0,Wunderground v.1.15,2013-01-01 05:33:00,
2013-01-01 00:39:00,42.2,24.9,29.15,N/A,-32768,0.0,0.0,50,0.00,,,0.00,0,Wunderground v.1.15,2013-01-01 05:39:00,
2013-01-01 00:45:00,42.3,24.5,29.15,N/A,-32768,0.0,0.0,49,0.00,,,0.00,0,Wunderground v.1.15,2013-01-01 05:45:00,
2013-01-01 00:50:00,42.2,24.4,29.15,N/A,-32768,0.0,0.0,49,0.00,,,0.00,0,Wunderground v.1.15,2013-01-01 05:50:00,
2013-01-01 00:56:00,42.3,24.5,29.14,N/A,-32768,0.0,0.0,49,0.00,,,0.00,0,Wunderground v.1.15,2013-01-01 05:56:00,
2013-01-01 01:01:00,42.2,24.4,29.14,N/A,-32768,0.0,0.0,49,0.00,,,0.00,0,Wunderground v.1.15,2013-01-01 06:01:00,
2013-01-01 01:07:00,42.0,24.7,29.14,N/A,-32768,0.0,0.0,50,0.00,,,0.00,0,Wunderground v.1.15,2013-01-01 06:07:00,
2013-01-01 01:12:00,42.0,24.2,29.14,N/A,-32768,0.0,0.0,49,0.00,,,0.00,0,Wunderground v.1.15,2013-01-01 06:12:00,
2013-01-01 01:17:00,42.0,24.7,29.15,N/A,-32768,0.0,0.0,50,0.00,,,0.00,0,Wunderground v.1.15,2013-01-01 06:17:00,
2013-01-01 01:23:00,41.9,24.6,29.15,N/A,-32768,0.0,0.0,50,0.00,,,0.00,0,Wunderground v.1.15,2013-01-01 06:23:00,
2013-01-01 01:29:00,41.9,24.6,29.15,N/A,-32768,0.0,0.0,50,0.00,,,0.00,0,Wunderground v.1.15,2013-01-01 06:29:00,
2013-01-01 01:35:00,41.9,24.6,29.14,N/A,-32768,0.0,0.0,50,0.00,,,0.00,0,Wunderground v.1.15,2013-01-01 06:35:00,
2013-01-01 01:40:00,42.0,24.7,29.15,N/A,-32768,0.0,0.0,50,0.00,,,0.00,0,Wunderground v.1.15,2013-01-01 06:40:00,
2013-01-01 01:46:00,41.9,24.6,29.14,N/A,-32768,0.0,0.0,50,0.00,,,0.00,0,Wunderground v.1.15,2013-01-01 06:46:00,
2013-01-01 01:52:00,42.0,24.7,29.14,N/A,-32768,0.0,0.0,50,0.00,,,0.00,0,Wunderground v.1.15,2013-01-01 06:52:00,
2013-01-01 01:57:00,41.9,24.6,29.15,N/A,-32768,0.0,0.0,50,0.00,,,0.00,0,Wunderground v.1.15,2013-01-01 06:57:00,
2013-01-01 02:02:00,41.7,24.9,29.14,N/A,-32768,0.0,0.0,51,0.00,,,0.00,0,Wunderground v.1.15,2013-01-01 07:02:00,
2013-01-01 02:07:00,41.9,25.1,29.14,N/A,-32768,0.0,0.0,51,0.00,,,0.00,0,Wunderground v.1.15,2013-01-01 07:07:00,
2013-01-01 02:12:00,41.8,25.0,29.14,N/A,-32768,0.0,0.0,51,0.00,,,0.00,0,Wunderground v.1.15,2013-01-01 07:12:00,
2013-01-01 02:17:00,41.7,24.9,29.14,N/A,-32768,0.0,0.0,51,0.00,,,0.00,0,Wunderground v.1.15,2013-01-01 07:17:00,
2013-01-01 02:22:00,41.6,24.8,29.15,N/A,-32768,0.0,0.0,51,0.00,,,0.00,0,Wunderground v.1.15,2013-01-01 07:22:00,
2013-01-01 02:27:00,41.5,24.7,29.15,N/A,-32768,0.0,0.0,51,0.00,,,0.00,0,Wunderground v.1.15,2013-01-01 07:27:00,
2013-01-01 02:32:00,41.7,24.9,29.15,N/A,-32768,0.0,0.0,51,0.00,,,0.00,0,Wunderground v.1.15,2013-01-01 07:32:00,
2013-01-01 02:37:00,41.5,24.7,29.15,N/A,-32768,0.0,0.0,51,0.00,,,0.00,0,Wunderground v.1.15,2013-01-01 07:37:00,
2013-01-01 02:42:00,41.4,24.6,29.15,N/A,-32768,0.0,0.0,51,0.00,,,0.00,0,Wunderground v.1.15,2013-01-01 07:42:00,
2013-01-01 02:47:00,41.4,25.1,29.15,N/A,-32768,0.0,0.0,52,0.00,,,0.00,0,Wunderground v.1.15,2013-01-01 07:47:00,
2013-01-01 02:52:00,41.2,24.9,29.15,N/A,-32768,0.0,0.0,52,0.00,,,0.00,0,Wunderground v.1.15,2013-01-01 07:52:00,
2013-01-01 02:57:00,41.2,24.9,29.16,N/A,-32768,0.0,0.0,52,0.00,,,0.00,0,Wunderground v.1.15,2013-01-01 07:57:00,
2013-01-01 03:02:00,41.1,24.8,29.16,N/A,-32768,0.0,0.0,52,0.00,,,0.00,0,Wunderground v.1.15,2013-01-01 08:02:00,
2013-01-01 03:07:00,41.1,24.8,29.15,N/A,-32768,0.0,0.0,52,0.00,,,0.00,0,Wunderground v.1.15,2013-01-01 08:07:00,
2013-01-01 03:12:00,41.1,24.8,29.15,N/A,-32768,0.0,0.0,52,0.00,,,0.00,0,Wunderground v.1.15,2013-01-01 08:12:00,
2013-01-01 03:17:00,41.1,24.8,29.15,N/A,-32768,0.0,0.0,52,0.00,,,0.00,0,Wunderground v.1.15,2013-01-01 08:17:00,
2013-01-01 03:22:00,41.2,24.9,29.16,N/A,-32768,0.0,0.0,52,0.00,,,0.00,0,Wunderground v.1.15,2013-01-01 08:22:00,
2013-01-01 03:27:00,41.0,24.7,29.16,N/A,-32768,0.0,0.0,52,0.00,,,0.00,0,Wunderground v.1.15,2013-01-01 08:27:00,
2013-01-01 03:32:00,41.0,24.7,29.16,N/A,-32768,0.0,0.0,52,0.00,,,0.00,0,Wunderground v.1.15,2013-01-01 08:32:00,
2013-01-01 03:37:00,41.2,24.9,29.16,N/A,-32768,0.0,0.0,52,0.00,,,0.00,0,Wunderground v.1.15,2013-01-01 08:37:00,
2013-01-01 03:42:00,41.2,24.9,29.16,N/A,-32768,0.0,0.0,52,0.00,,,0.00,0,Wunderground v.1.15,2013-01-01 08:42:00,
2013-01-01 03:47:00,41.1,24.8,29.16,N/A,-32768,0.0,0.0,52,0.00,,,0.00,0,Wunderground v.1.15,2013-01-01 08:47:00,
2013-01-01 03:52:00,41.0,24.7,29.16,N/A,-32768,0.0,0.0,52,0.00,,,0.00,0,Wunderground v.1.15,2013-01-01 08:52:00,
2013-01-01 03:57:00,41.0,25.2,29.16,N/A,-32768,0.0,0.0,53,0.00,,,0.00,0,Wunderground v.1.15,2013-01-01 08:57:00,
2013-01-01 04:02:00,41.0,24.7,29.16,N/A,-32768,0.0,0.0,52,0.00,,,0.00,0,Wunderground v.1.15,2013-01-01 09:02:00,
2013-01-01 04:07:00,41.0,24.7,29.16,N/A,-32768,0.0,0.0,52,0.00,,,0.00,0,Wunderground v.1.15,2013-01-01 09:07:00,
2013-01-01 04:12:00,40.9,25.1,29.15,N/A,-32768,0.0,0.0,53,0.00,,,0.00,0,Wunderground v.1.15,2013-01-01 09:12:00,
2013-01-01 04:17:00,40.7,24.9,29.15,N/A,-32768,0.0,0.0,53,0.00,,,0.00,0,Wunderground v.1.15,2013-01-01 09:17:00,
2013-01-01 04:22:00,40.7,24.9,29.15,N/A,-32768,0.0,0.0,53,0.00,,,0.00,0,Wunderground v.1.15,2013-01-01 09:22:00,
2013-01-01 04:27:00,40.7,24.9,29.15,N/A,-32768,0.0,0.0,53,0.00,,,0.00,0,Wunderground v.1.15,2013-01-01 09:27:00,
2013-01-01 04:32:00,40.6,25.2,29.15,N/A,-32768,0.0,0.0,54,0.00,,,0.00,0,Wunderground v.1.15,2013-01-01 09:32:00,
2013-01-01 04:37:00,40.5,25.1,29.15,N/A,-32768,0.0,0.0,54,0.00,,,0.00,0,Wunderground v.1.15,2013-01-01 09:37:00,
2013-01-01 04:42:00,40.2,24.9,29.15,N/A,-32768,0.0,0.0,54,0.00,,,0.00,0,Wunderground v.1.15,2013-01-01 09:42:00,
2013-01-01 04:47:00,40.2,24.9,29.14,N/A,-32768,0.0,0.0,54,0.00,,,0.00,0,Wunderground v.1.15,2013-01-01 09:47:00,
2013-01-01 04:52:00,40.1,24.8,29.15,N/A,-32768,0.0,0.0,54,0.00,,,0.00,0,Wunderground v.1.15,2013-01-01 09:52:00,
2013-01-01 04:57:00,39.9,25.0,29.14,N/A,-32768,0.0,0.0,55,0.00,,,0.00,0,Wunderground v.1.15,2013-01-01 09:57:00,
2013-01-01 05:02:00,39.8,24.9,29.14,N/A,-32768,0.0,0.0,55,0.00,,,0.00,0,Wunderground v.1.15,2013-01-01 10:02:00,
2013-01-01 05:08:00,39.5,24.7,29.14,N/A,-32768,0.0,0.0,55,0.00,,,0.00,0,Wunderground v.1.15,2013-01-01 10:08:00,
2013-01-01 05:12:00,39.3,24.9,29.14,N/A,-32768,0.0,0.0,56,0.00,,,0.00,0,Wunderground v.1.15,2013-01-01 10:12:00,
2013-01-01 05:18:00,39.1,24.7,29.14,N/A,-32768,0.0,0.0,56,0.00,,,0.00,0,Wunderground v.1.15,2013-01-01 10:18:00,
2013-01-01 05:22:00,38.9,24.5,29.14,N/A,-32768,0.0,0.0,56,0.00,,,0.00,0,Wunderground v.1.15,2013-01-01 10:22:00,
2013-01-01 05:28:00,38.6,24.7,29.14,N/A,-32768,0.0,0.0,57,0.00,,,0.00,0,Wunderground v.1.15,2013-01-01 10:28:00,
2013-01-01 05:33:00,38.3,24.4,29.14,N/A,-32768,0.0,0.0,57,0.00,,,0.00,0,Wunderground v.1.15,2013-01-01 10:33:00,
2013-01-01 05:38:00,38.0,24.1,29.15,N/A,-32768,0.0,0.0,57,0.00,,,0.00,0,Wunderground v.1.15,2013-01-01 10:38:00,
2013-01-01 05:44:00,37.7,24.2,29.15,N/A,-32768,0.0,0.0,58,0.00,,,0.00,0,Wunderground v.1.15,2013-01-01 10:44:00,
2013-01-01 05:49:00,37.5,24.1,29.14,N/A,-32768,0.0,0.0,58,0.00,,,0.00,0,Wunderground v.1.15,2013-01-01 10:49:00,
2013-01-01 05:54:00,37.2,23.8,29.15,N/A,-32768,0.0,0.0,58,0.00,,,0.00,0,Wunderground v.1.15,2013-01-01 10:54:00,
2013-01-01 05:59:00,37.1,24.1,29.15,N/A,-32768,0.0,0.0,59,0.00,,,0.00,0,Wunderground v.1.15,2013-01-01 10:59:00,
2013-01-01 06:04:00,37.1,24.1,29.15,N/A,-32768,0.0,0.0,59,0.00,,,0.00,0,Wunderground v.1.15,2013-01-01 11:04:00,
2013-01-01 06:09:00,36.9,24.3,29.16,N/A,-32768,0.0,0.0,60,0.00,,,0.00,0,Wunderground v.1.15,2013-01-01 11:09:00,
2013-01-01 06:14:00,36.5,23.9,29.16,N/A,-32768,0.0,0.0,60,0.00,,,0.00,0,Wunderground v.1.15,2013-01-01 11:14:00,
2013-01-01 06:19:00,36.3,23.7,29.17,N/A,-32768,0.0,0.0,60,0.00,,,0.00,0,Wunderground v.1.15,2013-01-01 11:19:00,
2013-01-01 06:24:00,36.4,23.8,29.17,N/A,-32768,0.0,0.0,60,0.00,,,0.00,0,Wunderground v.1.15,2013-01-01 11:24:00,
2013-01-01 06:29:00,36.4,24.2,29.16,N/A,-32768,0.0,0.0,61,0.00,,,0.00,0,Wunderground v.1.15,2013-01-01 11:29:00,
2013-01-01 06:34:00,36.6,24.4,29.17,N/A,-32768,0.0,0.0,61,0.00,,,0.00,0,Wunderground v.1.15,2013-01-01 11:34:00,
2013-01-01 06:39:00,36.6,24.4,29.17,N/A,-32768,0.0,0.0,61,0.00,,,0.00,0,Wunderground v.1.15,2013-01-01 11:39:00,
2013-01-01 06:44:00,36.8,24.6,29.17,N/A,-32768,0.0,0.0,61,0.00,,,0.00,0,Wunderground v.1.15,2013-01-01 11:44:00,
2013-01-01 06:49:00,37.1,24.9,29.17,N/A,-32768,0.0,0.0,61,0.00,,,0.00,0,Wunderground v.1.15,2013-01-01 11:49:00,
2013-01-01 06:55:00,37.3,25.5,29.17,N/A,-32768,0.0,0.0,62,0.00,,,0.00,0,Wunderground v.1.15,2013-01-01 11:55:00,
2013-01-01 07:00:00,37.7,25.5,29.17,N/A,-32768,0.0,0.0,61,0.00,,,0.00,0,Wunderground v.1.15,2013-01-01 12:00:00,
2013-01-01 07:05:00,37.9,25.6,29.17,N/A,-32768,0.0,0.0,61,0.00,,,0.00,0,Wunderground v.1.15,2013-01-01 12:05:00,
2013-01-01 07:10:00,37.5,25.3,29.17,N/A,-32768,0.0,0.0,61,0.00,,,0.00,0,Wunderground v.1.15,2013-01-01 12:10:00,
2013-01-01 07:15:00,37.4,25.2,29.16,N/A,-32768,0.0,0.0,61,0.00,,,0.00,0,Wunderground v.1.15,2013-01-01 12:15:00,
2013-01-01 07:20:00,37.3,25.1,29.17,N/A,-32768,0.0,0.0,61,0.00,,,0.00,0,Wunderground v.1.15,2013-01-01 12:20:00,
2013-01-01 07:25:00,37.4,25.6,29.17,N/A,-32768,0.0,0.0,62,0.00,,,0.00,0,Wunderground v.1.15,2013-01-01 12:25:00,
2013-01-01 07:30:00,37.3,25.5,29.17,N/A,-32768,0.0,0.0,62,0.00,,,0.00,0,Wunderground v.1.15,2013-01-01 12:30:00,
2013-01-01 07:35:00,37.2,25.4,29.17,N/A,-32768,0.0,0.0,62,0.00,,,0.00,0,Wunderground v.1.15,2013-01-01 12:35:00,
2013-01-01 07:40:00,37.2,25.4,29.17,N/A,-32768,0.0,0.0,62,0.00,,,0.00,0,Wunderground v.1.15,2013-01-01 12:40:00,
2013-01-01 07:45:00,36.9,25.1,29.18,N/A,-32768,0.0,0.0,62,0.00,,,0.00,0,Wunderground v.1.15,2013-01-01 12:45:00,
2013-01-01 07:50:00,36.9,25.1,29.18,N/A,-32768,0.0,0.0,62,0.00,,,0.00,0,Wunderground v.1.15,2013-01-01 12:50:00,
2013-01-01 07:55:00,36.7,25.3,29.17,N/A,-32768,0.0,0.0,63,0.00,,,0.00,0,Wunderground v.1.15,2013-01-01 12:55:00,
2013-01-01 08:00:00,37.1,25.7,29.17,N/A,-32768,0.0,0.0,63,0.00,,,0.00,0,Wunderground v.1.15,2013-01-01 13:00:00,
2013-01-01 08:05:00,37.3,25.8,29.17,N/A,-32768,0.0,0.0,63,0.00,,,0.00,0,Wunderground v.1.15,2013-01-01 13:05:00,
2013-01-01 08:10:00,37.3,25.8,29.18,N/A,-32768,0.0,0.0,63,0.00,,,0.00,0,Wunderground v.1.15,2013-01-01 13:10:00,
2013-01-01 08:15:00,37.7,26.2,29.17,N/A,-32768,0.0,0.0,63,0.00,,,0.00,0,Wunderground v.1.15,2013-01-01 13:15:00,
2013-01-01 08:20:00,37.8,26.3,29.18,N/A,-32768,0.0,0.0,63,0.00,,,0.00,0,Wunderground v.1.15,2013-01-01 13:20:00,
2013-01-01 08:25:00,37.8,26.3,29.17,N/A,-32768,0.0,0.0,63,0.00,,,0.00,0,Wunderground v.1.15,2013-01-01 13:25:00,
2013-01-01 08:30:00,38.2,26.7,29.17,N/A,-32768,0.0,0.0,63,0.00,,,0.00,0,Wunderground v.1.15,2013-01-01 13:30:00,
2013-01-01 08:35:00,38.5,26.6,29.17,N/A,-32768,0.0,0.0,62,0.00,,,0.00,0,Wunderground v.1.15,2013-01-01 13:35:00,
2013-01-01 08:40:00,38.6,26.7,29.17,N/A,-32768,0.0,0.0,62,0.00,,,0.00,0,Wunderground v.1.15,2013-01-01 13:40:00,
2013-01-01 08:45:00,38.8,26.9,29.18,N/A,-32768,0.0,0.0,62,0.00,,,0.00,0,Wunderground v.1.15,2013-01-01 13:45:00,
2013-01-01 08:50:00,39.1,26.8,29.17,N/A,-32768,0.0,0.0,61,0.00,,,0.00,0,Wunderground v.1.15,2013-01-01 13:50:00,
2013-01-01 08:55:00,39.4,27.1,29.17,N/A,-32768,0.0,0.0,61,0.00,,,0.00,0,Wunderground v.1.15,2013-01-01 13:55:00,
2013-01-01 09:00:00,39.5,27.2,29.18,N/A,-32768,0.0,0.0,61,0.00,,,0.00,0,Wunderground v.1.15,2013-01-01 14:00:00,
2013-01-01 09:05:00,39.5,27.2,29.17,N/A,-32768,0.0,0.0,61,0.00,,,0.00,0,Wunderground v.1.15,2013-01-01 14:05:00,
2013-01-01 09:11:00,39.5,27.2,29.18,N/A,-32768,0.0,0.0,61,0.00,,,0.00,0,Wunderground v.1.15,2013-01-01 14:11:00,
2013-01-01 09:16:00,39.5,27.2,29.18,N/A,-32768,0.0,0.0,61,0.00,,,0.00,0,Wunderground v.1.15,2013-01-01 14:16:00,
2013-01-01 09:21:00,39.7,26.9,29.18,N/A,-32768,0.0,0.0,60,0.00,,,0.00,0,Wunderground v.1.15,2013-01-01 14:21:00,
2013-01-01 09:26:00,39.7,26.9,29.18,N/A,-32768,0.0,0.0,60,0.00,,,0.00,0,Wunderground v.1.15,2013-01-01 14:26:00,
2013-01-01 09:31:00,39.8,27.4,29.18,N/A,-32768,0.0,0.0,61,0.00,,,0.00,0,Wunderground v.1.15,2013-01-01 14:31:00,
2013-01-01 09:36:00,39.8,27.0,29.19,N/A,-32768,0.0,0.0,60,0.00,,,0.00,0,Wunderground v.1.15,2013-01-01 14:36:00,
2013-01-01 09:41:00,39.8,27.0,29.18,N/A,-32768,0.0,0.0,60,0.00,,,0.00,0,Wunderground v.1.15,2013-01-01 14:41:00,
2013-01-01 09:46:00,40.0,27.2,29.18,N/A,-32768,0.0,0.0,60,0.00,,,0.00,0,Wunderground v.1.15,2013-01-01 14:46:00,
2013-01-01 09:51:00,40.1,27.3,29.18,N/A,-32768,0.0,0.0,60,0.00,,,0.00,0,Wunderground v.1.15,2013-01-01 14:51:00,
2013-01-01 09:56:00,40.1,27.3,29.18,N/A,-32768,0.0,0.0,60,0.00,,,0.00,0,Wunderground v.1.15,2013-01-01 14:56:00,
2013-01-01 10:01:00,40.3,27.5,29.18,N/A,-32768,0.0,0.0,60,0.00,,,0.00,0,Wunderground v.1.15,2013-01-01 15:01:00,
2013-01-01 10:06:00,40.4,27.6,29.17,N/A,-32768,0.0,0.0,60,0.00,,,0.00,0,Wunderground v.1.15,2013-01-01 15:06:00,
2013-01-01 10:11:00,40.4,27.6,29.17,N/A,-32768,0.0,0.0,60,0.00,,,0.00,0,Wunderground v.1.15,2013-01-01 15:11:00,
2013-01-01 10:16:00,40.5,27.3,29.18,N/A,-32768,0.0,0.0,59,0.00,,,0.00,0,Wunderground v.1.15,2013-01-01 15:16:00,
2013-01-01 10:21:00,40.8,27.6,29.18,N/A,-32768,0.0,0.0,59,0.00,,,0.00,0,Wunderground v.1.15,2013-01-01 15:21:00,
2013-01-01 10:26:00,40.9,27.7,29.18,N/A,-32768,0.0,0.0,59,0.00,,,0.00,0,Wunderground v.1.15,2013-01-01 15:26:00,
2013-01-01 10:31:00,41.0,27.3,29.17,N/A,-32768,0.0,0.0,58,0.00,,,0.00,0,Wunderground v.1.15,2013-01-01 15:31:00,
2013-01-01 10:36:00,41.1,27.4,29.18,N/A,-32768,0.0,0.0,58,0.00,,,0.00,0,Wunderground v.1.15,2013-01-01 15:36:00,
2013-01-01 10:41:00,40.9,27.2,29.18,N/A,-32768,0.0,0.0,58,0.00,,,0.00,0,Wunderground v.1.15,2013-01-01 15:41:00,
2013-01-01 10:46:00,41.1,27.4,29.17,N/A,-32768,0.0,0.0,58,0.00,,,0.00,0,Wunderground v.1.15,2013-01-01 15:46:00,
2013-01-01 10:51:00,41.1,27.0,29.18,N/A,-32768,0.0,0.0,57,0.00,,,0.00,0,Wunderground v.1.15,2013-01-01 15:51:00,
2013-01-01 10:56:00,41.2,27.1,29.16,N/A,-32768,0.0,0.0,57,0.00,,,0.00,0,Wunderground v.1.15,2013-01-01 15:56:00,
2013-01-01 11:01:00,41.1,26.6,29.17,N/A,-32768,0.0,0.0,56,0.00,,,0.00,0,Wunderground v.1.15,2013-01-01 16:01:00,
2013-01-01 11:06:00,41.3,26.8,29.16,N/A,-32768,0.0,0.0,56,0.00,,,0.00,0,Wunderground v.1.15,2013-01-01 16:06:00,
2013-01-01 11:11:00,41.2,26.2,29.17,N/A,-32768,0.0,0.0,55,0.00,,,0.00,0,Wunderground v.1.15,2013-01-01 16:11:00,
2013-01-01 11:16:00,41.2,26.2,29.16,N/A,-32768,0.0,0.0,55,0.00,,,0.00,0,Wunderground v.1.15,2013-01-01 16:16:00,
2013-01-01 11:21:00,41.4,26.4,29.16,N/A,-32768,0.0,0.0,55,0.00,,,0.00,0,Wunderground v.1.15,2013-01-01 16:21:00,
2013-01-01 11:26:00,41.5,26.5,29.16,N/A,-32768,0.0,0.0,55,0.00,,,0.00,0,Wunderground v.1.15,2013-01-01 16:26:00,
2013-01-01 11:31:00,41.4,26.0,29.14,N/A,-32768,0.0,0.0,54,0.00,,,0.00,0,Wunderground v.1.15,2013-01-01 16:31:00,
2013-01-01 11:36:00,41.6,26.2,29.15,N/A,-32768,0.0,0.0,54,0.00,,,0.00,0,Wunderground v.1.15,2013-01-01 16:36:00,
2013-01-01 11:41:00,41.5,26.1,29.14,N/A,-32768,0.0,0.0,54,0.00,,,0.00,0,Wunderground v.1.15,2013-01-01 16:41:00,
2013-01-01 11:46:00,41.4,26.0,29.13,N/A,-32768,0.0,0.0,54,0.00,,,0.00,0,Wunderground v.1.15,2013-01-01 16:46:00,
2013-01-01 11:51:00,41.5,26.1,29.14,N/A,-32768,0.0,0.0,54,0.00,,,0.00,0,Wunderground v.1.15,2013-01-01 16:51:00,
2013-01-01 11:56:00,41.6,26.2,29.13,N/A,-32768,0.0,0.0,54,0.00,,,0.00,0,Wunderground v.1.15,2013-01-01 16:56:00,
2013-01-01 12:01:00,41.6,26.2,29.14,N/A,-32768,0.0,0.0,54,0.00,,,0.00,0,Wunderground v.1.15,2013-01-01 17:01:00,
2013-01-01 12:06:00,41.6,25.7,29.12,N/A,-32768,0.0,0.0,53,0.00,,,0.00,0,Wunderground v.1.15,2013-01-01 17:06:00,
2013-01-01 12:11:00,41.6,26.2,29.13,N/A,-32768,0.0,0.0,54,0.00,,,0.00,0,Wunderground v.1.15,2013-01-01 17:11:00,
2013-01-01 12:16:00,41.6,25.7,29.12,N/A,-32768,0.0,0.0,53,0.00,,,0.00,0,Wunderground v.1.15,2013-01-01 17:16:00,
2013-01-01 12:21:00,41.5,26.1,29.12,N/A,-32768,0.0,0.0,54,0.00,,,0.00,0,Wunderground v.1.15,2013-01-01 17:21:00,
2013-01-01 12:26:00,41.6,25.7,29.12,N/A,-32768,0.0,0.0,53,0.00,,,0.00,0,Wunderground v.1.15,2013-01-01 17:26:00,
2013-01-01 12:31:00,41.7,25.8,29.12,N/A,-32768,0.0,0.0,53,0.00,,,0.00,0,Wunderground v.1.15,2013-01-01 17:31:00,
2013-01-01 12:36:00,41.6,26.2,29.11,N/A,-32768,0.0,0.0,54,0.00,,,0.00,0,Wunderground v.1.15,2013-01-01 17:36:00,
2013-01-01 12:41:00,41.4,26.0,29.12,N/A,-32768,0.0,0.0,54,0.00,,,0.00,0,Wunderground v.1.15,2013-01-01 17:41:00,
2013-01-01 12:46:00,41.6,25.7,29.11,N/A,-32768,0.0,0.0,53,0.00,,,0.00,0,Wunderground v.1.15,2013-01-01 17:46:00,
2013-01-01 12:51:00,41.4,26.0,29.11,N/A,-32768,0.0,0.0,54,0.00,,,0.00,0,Wunderground v.1.15,2013-01-01 17:51:00,
2013-01-01 12:56:00,41.4,25.5,29.11,N/A,-32768,0.0,0.0,53,0.00,,,0.00,0,Wunderground v.1.15,2013-01-01 17:56:00,
2013-01-01 13:02:00,41.4,25.5,29.11,N/A,-32768,0.0,0.0,53,0.00,,,0.00,0,Wunderground v.1.15,2013-01-01 18:02:00,
2013-01-01 13:07:00,41.4,25.5,29.12,N/A,-32768,0.0,0.0,53,0.00,,,0.00,0,Wunderground v.1.15,2013-01-01 18:07:00,
2013-01-01 13:12:00,41.3,25.0,29.11,N/A,-32768,0.0,0.0,52,0.00,,,0.00,0,Wunderground v.1.15,2013-01-01 18:12:00,
2013-01-01 13:17:00,41.3,25.0,29.10,N/A,-32768,0.0,0.0,52,0.00,,,0.00,0,Wunderground v.1.15,2013-01-01 18:17:00,
2013-01-01 13:22:00,41.3,25.0,29.11,N/A,-32768,0.0,0.0,52,0.00,,,0.00,0,Wunderground v.1.15,2013-01-01 18:22:00,
2013-01-01 13:27:00,41.0,24.7,29.11,N/A,-32768,0.0,0.0,52,0.00,,,0.00,0,Wunderground v.1.15,2013-01-01 18:27:00,
2013-01-01 13:32:00,41.0,24.7,29.10,N/A,-32768,0.0,0.0,52,0.00,,,0.00,0,Wunderground v.1.15,2013-01-01 18:32:00,
2013-01-01 13:37:00,41.2,24.9,29.10,N/A,-32768,0.0,0.0,52,0.00,,,0.00,0,Wunderground v.1.15,2013-01-01 18:37:00,
2013-01-01 13:42:00,41.1,24.8,29.10,N/A,-32768,0.0,0.0,52,0.00,,,0.00,0,Wunderground v.1.15,2013-01-01 18:42:00,
2013-01-01 13:47:00,40.9,24.6,29.09,N/A,-32768,0.0,0.0,52,0.00,,,0.00,0,Wunderground v.1.15,2013-01-01 18:47:00,
2013-01-01 13:52:00,40.9,24.6,29.09,N/A,-32768,0.0,0.0,52,0.00,,,0.00,0,Wunderground v.1.15,2013-01-01 18:52:00,
2013-01-01 13:57:00,41.0,25.2,29.09,N/A,-32768,0.0,0.0,53,0.00,,,0.00,0,Wunderground v.1.15,2013-01-01 18:57:00,
2013-01-01 14:02:00,40.8,25.0,29.09,N/A,-32768,0.0,0.0,53,0.00,,,0.00,0,Wunderground v.1.15,2013-01-01 19:02:00,
2013-01-01 14:07:00,40.9,25.1,29.10,N/A,-32768,0.0,0.0,53,0.00,,,0.00,0,Wunderground v.1.15,2013-01-01 19:07:00,
2013-01-01 14:12:00,40.8,24.5,29.09,N/A,-32768,0.0,0.0,52,0.00,,,0.00,0,Wunderground v.1.15,2013-01-01 19:12:00,
2013-01-01 14:17:00,40.8,25.0,29.09,N/A,-32768,0.0,0.0,53,0.00,,,0.00,0,Wunderground v.1.15,2013-01-01 19:17:00,
2013-01-01 14:22:00,40.7,24.9,29.09,N/A,-32768,0.0,0.0,53,0.00,,,0.00,0,Wunderground v.1.15,2013-01-01 19:22:00,
2013-01-01 14:27:00,40.7,24.4,29.09,N/A,-32768,0.0,0.0,52,0.00,,,0.00,0,Wunderground v.1.15,2013-01-01 19:27:00,
2013-01-01 14:32:00,40.8,25.0,29.09,N/A,-32768,0.0,0.0,53,0.00,,,0.00,0,Wunderground v.1.15,2013-01-01 19:32:00,
2013-01-01 14:37:00,40.8,25.0,29.10,N/A,-32768,0.0,0.0,53,0.00,,,0.00,0,Wunderground v.1.15,2013-01-01 19:37:00,
2013-01-01 14:42:00,40.6,24.8,29.10,N/A,-32768,0.0,0.0,53,0.00,,,0.00,0,Wunderground v.1.15,2013-01-01 19:42:00,
2013-01-01 14:47:00,40.6,24.8,29.10,N/A,-32768,0.0,0.0,53,0.00,,,0.00,0,Wunderground v.1.15,2013-01-01 19:47:00,
2013-01-01 14:52:00,40.7,24.9,29.10,N/A,-32768,0.0,0.0,53,0.00,,,0.00,0,Wunderground v.1.15,2013-01-01 19:52:00,
2013-01-01 14:57:00,40.7,24.9,29.09,N/A,-32768,0.0,0.0,53,0.00,,,0.00,0,Wunderground v.1.15,2013-01-01 19:57:00,
2013-01-01 15:02:00,40.6,24.8,29.10,N/A,-32768,0.0,0.0,53,0.00,,,0.00,0,Wunderground v.1.15,2013-01-01 20:02:00,
2013-01-01 15:07:00,40.5,24.2,29.10,N/A,-32768,0.0,0.0,52,0.00,,,0.00,0,Wunderground v.1.15,2013-01-01 20:07:00,
2013-01-01 15:12:00,40.6,24.3,29.10,N/A,-32768,0.0,0.0,52,0.00,,,0.00,0,Wunderground v.1.15,2013-01-01 20:12:00,
2013-01-01 15:17:00,40.5,24.2,29.10,N/A,-32768,0.0,0.0,52,0.00,,,0.00,0,Wunderground v.1.15,2013-01-01 20:17:00,
2013-01-01 15:22:00,40.5,24.2,29.11,N/A,-32768,0.0,0.0,52,0.00,,,0.00,0,Wunderground v.1.15,2013-01-01 20:22:00,
2013-01-01 15:27:00,40.4,24.1,29.11,N/A,-32768,0.0,0.0,52,0.00,,,0.00,0,Wunderground v.1.15,2013-01-01 20:27:00,
2013-01-01 15:32:00,40.6,24.3,29.12,N/A,-32768,0.0,0.0,52,0.00,,,0.00,0,Wunderground v.1.15,2013-01-01 20:32:00,
2013-01-01 15:37:00,40.4,24.6,29.12,N/A,-32768,0.0,0.0,53,0.00,,,0.00,0,Wunderground v.1.15,2013-01-01 20:37:00,
2013-01-01 15:42:00,40.3,24.5,29.12,N/A,-32768,0.0,0.0,53,0.00,,,0.00,0,Wunderground v.1.15,2013-01-01 20:42:00,
2013-01-01 15:47:00,40.2,24.4,29.12,N/A,-32768,0.0,0.0,53,0.00,,,0.00,0,Wunderground v.1.15,2013-01-01 20:47:00,
2013-01-01 15:52:00,40.1,24.8,29.13,N/A,-32768,0.0,0.0,54,0.00,,,0.00,0,Wunderground v.1.15,2013-01-01 20:52:00,
2013-01-01 15:57:00,40.1,24.8,29.13,N/A,-32768,0.0,0.0,54,0.00,,,0.00,0,Wunderground v.1.15,2013-01-01 20:57:00,
2013-01-01 16:02:00,40.0,24.7,29.14,N/A,-32768,0.0,0.0,54,0.00,,,0.00,0,Wunderground v.1.15,2013-01-01 21:02:00,
2013-01-01 16:07:00,40.0,24.7,29.14,N/A,-32768,0.0,0.0,54,0.00,,,0.00,0,Wunderground v.1.15,2013-01-01 21:07:00,
2013-01-01 16:12:00,39.8,24.5,29.14,N/A,-32768,0.0,0.0,54,0.00,,,0.00,0,Wunderground v.1.15,2013-01-01 21:12:00,
2013-01-01 16:17:00,39.7,24.4,29.14,N/A,-32768,0.0,0.0,54,0.00,,,0.00,0,Wunderground v.1.15,2013-01-01 21:17:00,
2013-01-01 16:22:00,39.8,24.5,29.13,N/A,-32768,0.0,0.0,54,0.00,,,0.00,0,Wunderground v.1.15,2013-01-01 21:22:00,
2013-01-01 16:27:00,39.8,24.9,29.14,N/A,-32768,0.0,0.0,55,0.00,,,0.00,0,Wunderground v.1.15,2013-01-01 21:27:00,
2013-01-01 16:32:00,39.5,24.7,29.13,N/A,-32768,0.0,0.0,55,0.00,,,0.00,0,Wunderground v.1.15,2013-01-01 21:32:00,
2013-01-01 16:38:00,39.5,24.7,29.13,N/A,-32768,0.0,0.0,55,0.00,,,0.00,0,Wunderground v.1.15,2013-01-01 21:38:00,
2013-01-01 16:43:00,39.4,24.6,29.13,N/A,-32768,0.0,0.0,55,0.00,,,0.00,0,Wunderground v.1.15,2013-01-01 21:43:00,
2013-01-01 16:48:00,39.5,24.7,29.13,N/A,-32768,0.0,0.0,55,0.00,,,0.00,0,Wunderground v.1.15,2013-01-01 21:48:00,
2013-01-01 16:53:00,39.5,24.7,29.14,N/A,-32768,0.0,0.0,55,0.00,,,0.00,0,Wunderground v.1.15,2013-01-01 21:53:00,
2013-01-01 16:58:00,39.3,24.5,29.14,N/A,-32768,0.0,0.0,55,0.00,,,0.00,0,Wunderground v.1.15,2013-01-01 21:58:00,
2013-01-01 17:03:00,39.0,25.0,29.14,N/A,-32768,0.0,0.0,57,0.00,,,0.00,0,Wunderground v.1.15,2013-01-01 22:03:00,
2013-01-01 17:08:00,38.7,25.2,29.15,N/A,-32768,0.0,0.0,58,0.00,,,0.00,0,Wunderground v.1.15,2013-01-01 22:08:00,
2013-01-01 17:13:00,38.3,25.2,29.15,N/A,-32768,0.0,0.0,59,0.00,,,0.00,0,Wunderground v.1.15,2013-01-01 22:13:00,
2013-01-01 17:18:00,38.1,25.0,29.16,N/A,-32768,0.0,0.0,59,0.00,,,0.00,0,Wunderground v.1.15,2013-01-01 22:18:00,
2013-01-01 17:23:00,38.0,25.3,29.15,N/A,-32768,0.0,0.0,60,0.00,,,0.00,0,Wunderground v.1.15,2013-01-01 22:23:00,
2013-01-01 17:28:00,37.6,25.0,29.14,N/A,-32768,0.0,0.0,60,0.00,,,0.00,0,Wunderground v.1.15,2013-01-01 22:28:00,
2013-01-01 17:33:00,37.6,25.0,29.15,N/A,-32768,0.0,0.0,60,0.00,,,0.00,0,Wunderground v.1.15,2013-01-01 22:33:00,
2013-01-01 17:38:00,37.8,25.1,29.15,N/A,-32768,0.0,0.0,60,0.00,,,0.00,0,Wunderground v.1.15,2013-01-01 22:38:00,
2013-01-01 17:43:00,37.5,24.9,29.16,N/A,-32768,0.0,0.0,60,0.00,,,0.00,0,Wunderground v.1.15,2013-01-01 22:43:00,
2013-01-01 17:48:00,37.5,24.9,29.17,N/A,-32768,0.0,0.0,60,0.00,,,0.00,0,Wunderground v.1.15,2013-01-01 22:48:00,
2013-01-01 17:53:00,37.5,24.9,29.16,N/A,-32768,0.0,0.0,60,0.00,,,0.00,0,Wunderground v.1.15,2013-01-01 22:53:00,
2013-01-01 17:58:00,37.6,24.6,29.16,N/A,-32768,0.0,0.0,59,0.00,,,0.00,0,Wunderground v.1.15,2013-01-01 22:58:00,
2013-01-01 18:03:00,37.7,24.6,29.16,N/A,-32768,0.0,0.0,59,0.00,,,0.00,0,Wunderground v.1.15,2013-01-01 23:03:00,
2013-01-01 18:08:00,37.7,24.6,29.16,N/A,-32768,0.0,0.0,59,0.00,,,0.00,0,Wunderground v.1.15,2013-01-01 23:08:00,
2013-01-01 18:13:00,37.7,24.6,29.16,N/A,-32768,0.0,0.0,59,0.00,,,0.00,0,Wunderground v.1.15,2013-01-01 23:13:00,
2013-01-01 18:18:00,37.5,24.5,29.17,N/A,-32768,0.0,0.0,59,0.00,,,0.00,0,Wunderground v.1.15,2013-01-01 23:18:00,
2013-01-01 18:24:00,37.7,24.2,29.17,N/A,-32768,0.0,0.0,58,0.00,,,0.00,0,Wunderground v.1.15,2013-01-01 23:24:00,
2013-01-01 18:29:00,37.9,24.4,29.17,N/A,-32768,0.0,0.0,58,0.00,,,0.00,0,Wunderground v.1.15,2013-01-01 23:29:00,
2013-01-01 18:34:00,37.6,24.1,29.18,N/A,-32768,0.0,0.0,58,0.00,,,0.00,0,Wunderground v.1.15,2013-01-01 23:34:00,
2013-01-01 18:39:00,37.6,24.1,29.18,N/A,-32768,0.0,0.0,58,0.00,,,0.00,0,Wunderground v.1.15,2013-01-01 23:39:00,
2013-01-01 18:44:00,37.6,23.7,29.18,N/A,-32768,0.0,0.0,57,0.00,,,0.00,0,Wunderground v.1.15,2013-01-01 23:44:00,
2013-01-01 18:49:00,37.5,23.6,29.18,N/A,-32768,0.0,0.0,57,0.00,,,0.00,0,Wunderground v.1.15,2013-01-01 23:49:00,
2013-01-01 18:54:00,37.5,23.6,29.18,N/A,-32768,0.0,0.0,57,0.00,,,0.00,0,Wunderground v.1.15,2013-01-01 23:54:00,
2013-01-01 18:59:00,37.7,23.8,29.18,N/A,-32768,0.0,0.0,57,0.00,,,0.00,0,Wunderground v.1.15,2013-01-01 23:59:00,
2013-01-01 19:04:00,37.4,23.5,29.18,N/A,-32768,0.0,0.0,57,0.00,,,0.00,0,Wunderground v.1.15,2013-01-02 00:04:00,
2013-01-01 19:09:00,37.4,23.5,29.19,N/A,-32768,0.0,0.0,57,0.00,,,0.00,0,Wunderground v.1.15,2013-01-02 00:09:00,
2013-01-01 19:14:00,37.5,23.6,29.19,N/A,-32768,0.0,0.0,57,0.00,,,0.00,0,Wunderground v.1.15,2013-01-02 00:14:00,
2013-01-01 19:19:00,37.5,23.6,29.19,N/A,-32768,0.0,0.0,57,0.00,,,0.00,0,Wunderground v.1.15,2013-01-02 00:19:00,
2013-01-01 19:24:00,37.4,23.5,29.18,N/A,-32768,0.0,0.0,57,0.00,,,0.00,0,Wunderground v.1.15,2013-01-02 00:24:00,
2013-01-01 19:29:00,37.2,23.8,29.19,N/A,-32768,0.0,0.0,58,0.00,,,0.00,0,Wunderground v.1.15,2013-01-02 00:29:00,
2013-01-01 19:34:00,37.1,23.7,29.19,N/A,-32768,0.0,0.0,58,0.00,,,0.00,0,Wunderground v.1.15,2013-01-02 00:34:00,
2013-01-01 19:39:00,37.1,23.7,29.19,N/A,-32768,0.0,0.0,58,0.00,,,0.00,0,Wunderground v.1.15,2013-01-02 00:39:00,
2013-01-01 19:44:00,36.9,23.5,29.19,N/A,-32768,0.0,0.0,58,0.00,,,0.00,0,Wunderground v.1.15,2013-01-02 00:44:00,
2013-01-01 19:49:00,36.8,23.0,29.19,N/A,-32768,0.0,0.0,57,0.00,,,0.00,0,Wunderground v.1.15,2013-01-02 00:49:00,
2013-01-01 19:54:00,36.6,22.4,29.20,N/A,-32768,0.0,0.0,56,0.00,,,0.00,0,Wunderground v.1.15,2013-01-02 00:54:00,
2013-01-01 19:59:00,36.4,22.2,29.20,N/A,-32768,0.0,0.0,56,0.00,,,0.00,0,Wunderground v.1.15,2013-01-02 00:59:00,
2013-01-01 20:04:00,36.3,21.7,29.20,N/A,-32768,0.0,0.0,55,0.00,,,0.00,0,Wunderground v.1.15,2013-01-02 01:04:00,
2013-01-01 20:09:00,36.2,21.1,29.20,N/A,-32768,0.0,0.0,54,0.00,,,0.00,0,Wunderground v.1.15,2013-01-02 01:09:00,
2013-01-01 20:14:00,36.1,21.0,29.21,N/A,-32768,0.0,0.0,54,0.00,,,0.00,0,Wunderground v.1.15,2013-01-02 01:14:00,
2013-01-01 20:19:00,35.9,20.9,29.20,N/A,-32768,0.0,0.0,54,0.00,,,0.00,0,Wunderground v.1.15,2013-01-02 01:19:00,
2013-01-01 20:24:00,35.8,20.3,29.20,N/A,-32768,0.0,0.0,53,0.00,,,0.00,0,Wunderground v.1.15,2013-01-02 01:24:00,
2013-01-01 20:29:00,35.8,20.3,29.20,N/A,-32768,0.0,0.0,53,0.00,,,0.00,0,Wunderground v.1.15,2013-01-02 01:29:00,
2013-01-01 20:34:00,35.4,19.5,29.21,N/A,-32768,0.0,0.0,52,0.00,,,0.00,0,Wunderground v.1.15,2013-01-02 01:34:00,
2013-01-01 20:39:00,35.3,19.4,29.21,N/A,-32768,0.0,0.0,52,0.00,,,0.00,0,Wunderground v.1.15,2013-01-02 01:39:00,
2013-01-01 20:44:00,35.0,18.7,29.21,N/A,-32768,0.0,0.0,51,0.00,,,0.00,0,Wunderground v.1.15,2013-01-02 01:44:00,
2013-01-01 20:49:00,35.1,18.8,29.20,N/A,-32768,0.0,0.0,51,0.00,,,0.00,0,Wunderground v.1.15,2013-01-02 01:49:00,
2013-01-01 20:54:00,34.7,17.9,29.20,N/A,-32768,0.0,0.0,50,0.00,,,0.00,0,Wunderground v.1.15,2013-01-02 01:54:00,
2013-01-01 20:59:00,34.5,17.3,29.21,N/A,-32768,0.0,0.0,49,0.00,,,0.00,0,Wunderground v.1.15,2013-01-02 01:59:00,
2013-01-01 21:04:00,34.5,17.3,29.21,N/A,-32768,0.0,0.0,49,0.00,,,0.00,0,Wunderground v.1.15,2013-01-02 02:04:00,
2013-01-01 21:09:00,34.2,16.5,29.21,N/A,-32768,0.0,0.0,48,0.00,,,0.00,0,Wunderground v.1.15,2013-01-02 02:09:00,
2013-01-01 21:14:00,34.3,16.6,29.21,N/A,-32768,0.0,0.0,48,0.00,,,0.00,0,Wunderground v.1.15,2013-01-02 02:14:00,
2013-01-01 21:19:00,34.1,16.4,29.22,N/A,-32768,0.0,0.0,48,0.00,,,0.00,0,Wunderground v.1.15,2013-01-02 02:19:00,
2013-01-01 21:24:00,33.9,15.8,29.21,N/A,-32768,0.0,0.0,47,0.00,,,0.00,0,Wunderground v.1.15,2013-01-02 02:24:00,
2013-01-01 21:29:00,34.0,15.4,29.21,N/A,-32768,0.0,0.0,46,0.00,,,0.00,0,Wunderground v.1.15,2013-01-02 02:29:00,
2013-01-01 21:34:00,33.8,15.2,29.21,N/A,-32768,0.0,0.0,46,0.00,,,0.00,0,Wunderground v.1.15,2013-01-02 02:34:00,
2013-01-01 21:39:00,33.7,14.6,29.21,N/A,-32768,0.0,0.0,45,0.00,,,0.00,0,Wunderground v.1.15,2013-01-02 02:39:00,
2013-01-01 21:44:00,33.6,15.0,29.21,N/A,-32768,0.0,0.0,46,0.00,,,0.00,0,Wunderground v.1.15,2013-01-02 02:44:00,
2013-01-01 21:49:00,33.5,14.9,29.21,N/A,-32768,0.0,0.0,46,0.00,,,0.00,0,Wunderground v.1.15,2013-01-02 02:49:00,
2013-01-01 21:55:00,33.5,14.9,29.21,N/A,-32768,0.0,0.0,46,0.00,,,0.00,0,Wunderground v.1.15,2013-01-02 02:55:00,
2013-01-01 22:00:00,33.2,14.6,29.21,N/A,-32768,0.0,0.0,46,0.00,,,0.00,0,Wunderground v.1.15,2013-01-02 03:00:00,
2013-01-01 22:05:00,33.1,14.5,29.22,N/A,-32768,0.0,0.0,46,0.00,,,0.00,0,Wunderground v.1.15,2013-01-02 03:05:00,
2013-01-01 22:10:00,33.2,14.6,29.22,N/A,-32768,0.0,0.0,46,0.00,,,0.00,0,Wunderground v.1.15,2013-01-02 03:10:00,
2013-01-01 22:15:00,33.0,14.9,29.22,N/A,-32768,0.0,0.0,47,0.00,,,0.00,0,Wunderground v.1.15,2013-01-02 03:15:00,
2013-01-01 22:20:00,32.9,14.4,29.23,N/A,-32768,0.0,0.0,46,0.00,,,0.00,0,Wunderground v.1.15,2013-01-02 03:20:00,
2013-01-01 22:25:00,32.8,14.8,29.24,N/A,-32768,0.0,0.0,47,0.00,,,0.00,0,Wunderground v.1.15,2013-01-02 03:25:00,
2013-01-01 22:30:00,32.6,14.6,29.25,N/A,-32768,0.0,0.0,47,0.00,,,0.00,0,Wunderground v.1.15,2013-01-02 03:30:00,
2013-01-01 22:35:00,32.5,14.5,29.24,N/A,-32768,0.0,0.0,47,0.00,,,0.00,0,Wunderground v.1.15,2013-01-02 03:35:00,
2013-01-01 22:40:00,32.6,14.6,29.24,N/A,-32768,0.0,0.0,47,0.00,,,0.00,0,Wunderground v.1.15,2013-01-02 03:40:00,
2013-01-01 22:45:00,32.4,14.4,29.24,N/A,-32768,0.0,0.0,47,0.00,,,0.00,0,Wunderground v.1.15,2013-01-02 03:45:00,
2013-01-01 22:50:00,32.2,14.7,29.24,N/A,-32768,0.0,0.0,48,0.00,,,0.00,0,Wunderground v.1.15,2013-01-02 03:50:00,
2013-01-01 22:55:00,32.1,13.6,29.24,N/A,-32768,0.0,0.0,46,0.00,,,0.00,0,Wunderground v.1.15,2013-01-02 03:55:00,
2013-01-01 23:00:00,32.0,13.5,29.24,N/A,-32768,0.0,0.0,46,0.00,,,0.00,0,Wunderground v.1.15,2013-01-02 04:00:00,
2013-01-01 23:05:00,32.0,13.5,29.25,N/A,-32768,0.0,0.0,46,0.00,,,0.00,0,Wunderground v.1.15,2013-01-02 04:05:00,
2013-01-01 23:10:00,32.0,13.0,29.25,N/A,-32768,0.0,0.0,45,0.00,,,0.00,0,Wunderground v.1.15,2013-01-02 04:10:00,
2013-01-01 23:15:00,31.8,12.8,29.25,N/A,-32768,0.0,0.0,45,0.00,,,0.00,0,Wunderground v.1.15,2013-01-02 04:15:00,
2013-01-01 23:20:00,32.0,13.0,29.25,N/A,-32768,0.0,0.0,45,0.00,,,0.00,0,Wunderground v.1.15,2013-01-02 04:20:00,
2013-01-01 23:25:00,31.7,12.8,29.26,N/A,-32768,0.0,0.0,45,0.00,,,0.00,0,Wunderground v.1.15,2013-01-02 04:25:00,
2013-01-01 23:30:00,31.8,12.8,29.26,N/A,-32768,0.0,0.0,45,0.00,,,0.00,0,Wunderground v.1.15,2013-01-02 04:30:00,
2013-01-01 23:35:00,31.7,12.8,29.24,N/A,-32768,0.0,0.0,45,0.00,,,0.00,0,Wunderground v.1.15,2013-01-02 04:35:00,
2013-01-01 23:40:00,31.4,12.5,29.24,N/A,-32768,0.0,0.0,45,0.00,,,0.00,0,Wunderground v.1.15,2013-01-02 04:40:00,
2013-01-01 23:45:00,31.2,12.3,29.25,N/A,-32768,0.0,0.0,45,0.00,,,0.00,0,Wunderground v.1.15,2013-01-02 04:45:00,
2013-01-01 23:50:00,31.3,12.4,29.25,N/A,-32768,0.0,0.0,45,0.00,,,0.00,0,Wunderground v.1.15,2013-01-02 04:50:00,
2013-01-01 23:55:00,31.2,12.3,29.25,N/A,-32768,0.0,0.0,45,0.00,,,0.00,0,Wunderground v.1.15,2013-01-02 04:55:00,